TimeEST,TemperatureF,Dew PointF,Humidity,Sea Level PressureIn,VisibilityMPH,Wind Direction,Wind SpeedMPH,Gust SpeedMPH,PrecipitationIn,Events,Conditions,WindDirDegrees,DateUTC
12:53 AM,62.1,55.0,78,30.25,10.0,Calm,Calm,-,N/A,,Scattered Clouds,0,2013-01-24 05:53:00
1:53 AM,60.1,54.0,80,30.25,10.0,NNW,4.6,-,N/A,,Partly Cloudy,340,2013-01-24 06:53:00
2:53 AM,59.0,54.0,83,30.24,10.0,NNW,3.5,-,N/A,,Clear,330,2013-01-24 07:53:00
3:53 AM,59.0,54.0,83,30.22,10.0,North,6.9,-,N/A,,Partly Cloudy,350,2013-01-24 08:53:00
4:53 AM,60.1,54.0,80,30.23,10.0,NW,3.5,-,N/A,,Partly Cloudy,320,2013-01-24 09:53:00
5:53 AM,57.9,53.1,84,30.23,10.0,NNW,5.8,-,N/A,,Partly Cloudy,330,2013-01-24 10:53:00
6:53 AM,59.0,53.1,81,30.24,10.0,North,6.9,-,N/A,,Partly Cloudy,350,2013-01-24 11:53:00
7:53 AM,60.1,53.1,78,30.27,10.0,North,10.4,-,N/A,,Partly Cloudy,350,2013-01-24 12:53:00
8:53 AM,66.0,51.1,59,30.29,10.0,North,8.1,-,N/A,,Partly Cloudy,360,2013-01-24 13:53:00
9:53 AM,70.0,50.0,49,30.29,10.0,North,9.2,-,N/A,,Partly Cloudy,360,2013-01-24 14:53:00
10:53 AM,73.0,51.1,46,30.28,10.0,NNE,8.1,-,N/A,,Partly Cloudy,20,2013-01-24 15:53:00
11:53 AM,75.0,53.1,46,30.27,10.0,NNE,6.9,-,N/A,,Partly Cloudy,20,2013-01-24 16:53:00
12:53 PM,73.9,55.0,52,30.24,10.0,ENE,10.4,-,N/A,,Mostly Cloudy,60,2013-01-24 17:53:00
1:53 PM,73.9,54.0,50,30.22,10.0,ENE,12.7,-,N/A,,Partly Cloudy,60,2013-01-24 18:53:00
2:53 PM,73.9,55.0,52,30.20,10.0,ENE,9.2,-,N/A,,Partly Cloudy,60,2013-01-24 19:53:00
3:53 PM,73.0,54.0,51,30.20,10.0,NE,11.5,-,N/A,,Partly Cloudy,50,2013-01-24 20:53:00
4:53 PM,72.0,53.1,51,30.22,10.0,NE,10.4,-,N/A,,Partly Cloudy,50,2013-01-24 21:53:00
5:53 PM,71.1,53.1,53,30.23,10.0,NE,9.2,-,N/A,,Partly Cloudy,40,2013-01-24 22:53:00
6:53 PM,69.1,53.1,57,30.24,10.0,North,6.9,-,N/A,,Partly Cloudy,10,2013-01-24 23:53:00
7:53 PM,66.9,48.9,52,30.25,10.0,North,8.1,-,N/A,,Partly Cloudy,360,2013-01-25 00:53:00
8:53 PM,64.9,50.0,58,30.26,10.0,North,6.9,-,N/A,,Partly Cloudy,360,2013-01-25 01:53:00
9:53 PM,64.0,51.1,63,30.27,10.0,North,8.1,-,N/A,,Partly Cloudy,360,2013-01-25 02:53:00
10:53 PM,63.0,52.0,67,30.27,10.0,North,4.6,-,N/A,,Partly Cloudy,360,2013-01-25 03:53:00
11:53 PM,62.1,53.1,72,30.26,10.0,North,4.6,-,N/A,,Partly Cloudy,360,2013-01-25 04:53:00